Location: Christchurch
(43.5330°S, 172.6330°E)
Time: 10:47:47
(UTC+12:00)

COSMOS 2428 - Pass Details

Date: 24 January 2019
Orbit: 843 x 858 km, 71.0° (Epoch: 19 April)

Event Time Altitude Azimuth Distance (km) Brightness Sun altitude
Exits shadow 23:03:08 28° 53° (NE) 1,555 3.5 -17.5°
Maximum altitude 23:04:22 31° 76° (ENE) 1,472 3.5 -17.6°
Drops below altitude 10° 23:09:23 10° 136° (SE) 2,519 5.3 -18.2°
Sets 23:12:06 0° 146° (SE) 3,464 6.1 -18.5°
